Location: Moscow
(55.7500°N, 37.5830°E)
Time: 23:54:18
(UTC+03:00)

Vanguard 1 - Visible Passes

Search period start: 09 August 2022 00:00
Search period end: 19 August 2022 00:00
Orbit: 648 x 3833 km, 34.3° (Epoch: 08 August)

Date Brightness Start Highest point End Pass type
(mag) Time Alt. Az. Time Alt. Az. Time Alt. Az.
10 Aug 13.6 02:23:45 10° SE 02:28:04 11° ESE 02:32:45 10° ESE visible
11 Aug 13.5 02:39:18 10° SSE 02:47:30 15° SE 02:57:15 10° E visible
12 Aug 13.3 02:57:03 10° S 03:07:04 19° SE 03:19:40 10° E visible
13 Aug 13.2 03:15:38 10° S 03:26:45 23° SE 03:41:22 10° E visible
14 Aug 13.1 03:34:43 10° SSW 03:46:35 27° SSE 04:02:39 10° E visible
15 Aug 13.2 01:42:12 10° SSE 01:47:24 13° SE 01:53:29 10° ESE visible
15 Aug 13.1 03:54:09 10° SSW 04:06:32 30° SSE 04:23:40 10° ESE visible
16 Aug 13.1 01:59:44 11° SSE 02:06:57 16° SE 02:16:30 10° ESE visible
16 Aug 13.0 04:13:50 10° SW 04:26:36 33° SSE 04:44:31 10° ESE visible
17 Aug 12.9 02:19:09 13° S 02:26:36 20° SE 02:38:24 10° E visible
18 Aug 12.8 02:38:35 14° S 02:46:23 24° SE 02:59:48 10° ESE visible
